Voltar ao catálogo

KUIPER-00226

AtivoComunicaçõesLEO
NORAD 67785·PAYLOAD·🇺🇸 United States

Lançado Feb 12, 2026 de Guiana Space Centre

Loading…

Próximas Passagens (próximas 24 horas)

TLE

AtualizadoSource: CelesTrak SupGP

Época: Sep 14, 2026, 22:12 UTC

1 67785C 26030X   26257.92543982  .00004471  00000+0  57757-3 0  2574
2 67785  51.8993  68.7935 0002463 313.8302 176.6624 14.80482806    17

Acompanhe KUIPER-00226 em tempo real com AllMySat

Download on the App Store